TimeEST,TemperatureF,Dew PointF,Humidity,Sea Level PressureIn,VisibilityMPH,Wind Direction,Wind SpeedMPH,Gust SpeedMPH,PrecipitationIn,Events,Conditions,WindDirDegrees,DateUTC
12:52 AM,28.0,12.9,53,29.87,10.0,North,11.5,-,N/A,,Clear,360,2014-01-22 05:52:00
1:52 AM,27.0,12.9,56,29.88,10.0,NNW,6.9,-,N/A,,Partly Cloudy,340,2014-01-22 06:52:00
2:52 AM,27.0,12.9,56,29.91,10.0,NNW,6.9,-,N/A,,Mostly Cloudy,330,2014-01-22 07:52:00
3:52 AM,26.1,12.0,55,29.93,10.0,North,9.2,-,N/A,,Overcast,350,2014-01-22 08:52:00
4:52 AM,21.9,10.0,60,29.94,10.0,North,6.9,-,N/A,,Partly Cloudy,350,2014-01-22 09:52:00
5:52 AM,23.0,10.0,58,29.96,10.0,NNW,6.9,-,N/A,,Clear,340,2014-01-22 10:52:00
6:52 AM,21.9,9.0,58,29.98,10.0,NNW,6.9,-,N/A,,Partly Cloudy,340,2014-01-22 11:52:00
7:52 AM,21.0,9.0,60,30.01,10.0,NNW,3.5,-,N/A,,Scattered Clouds,340,2014-01-22 12:52:00
8:52 AM,25.0,7.0,46,30.03,10.0,North,9.2,-,N/A,,Clear,350,2014-01-22 13:52:00
9:52 AM,27.0,6.1,41,30.06,10.0,NNW,10.4,-,N/A,,Partly Cloudy,330,2014-01-22 14:52:00
10:52 AM,30.0,5.0,35,30.07,10.0,NW,5.8,-,N/A,,Partly Cloudy,320,2014-01-22 15:52:00
11:52 AM,30.9,3.0,31,30.06,10.0,WSW,4.6,-,N/A,,Partly Cloudy,250,2014-01-22 16:52:00
12:52 PM,33.1,1.9,27,30.02,10.0,West,5.8,-,N/A,,Partly Cloudy,260,2014-01-22 17:52:00
1:52 PM,33.1,-0.0,24,30.00,10.0,Variable,4.6,-,N/A,,Partly Cloudy,0,2014-01-22 18:52:00
2:52 PM,36.0,-0.0,22,29.99,10.0,NW,6.9,-,N/A,,Clear,310,2014-01-22 19:52:00
3:52 PM,35.1,-5.1,18,29.99,10.0,West,4.6,-,N/A,,Clear,260,2014-01-22 20:52:00
4:52 PM,35.1,-2.9,20,30.01,10.0,West,4.6,-,N/A,,Clear,280,2014-01-22 21:52:00
5:52 PM,32.0,3.9,31,30.02,10.0,WSW,4.6,-,N/A,,Clear,250,2014-01-22 22:52:00
6:52 PM,30.9,6.1,35,30.04,10.0,Variable,4.6,-,N/A,,Clear,0,2014-01-22 23:52:00
7:52 PM,28.0,8.1,43,30.05,10.0,SSW,4.6,-,N/A,,Clear,210,2014-01-23 00:52:00
8:52 PM,28.9,5.0,36,30.06,10.0,South,8.1,-,N/A,,Clear,180,2014-01-23 01:52:00
9:52 PM,26.1,3.9,39,30.06,10.0,SSW,4.6,-,N/A,,Partly Cloudy,210,2014-01-23 02:52:00
10:52 PM,27.0,5.0,39,30.07,10.0,SW,3.5,-,N/A,,Clear,220,2014-01-23 03:52:00
11:52 PM,26.1,3.9,39,30.08,10.0,West,3.5,-,N/A,,Clear,270,2014-01-23 04:52:00